Погода Агинское

Погода Агинское : погода сейчас, прогноз погоды и архив. Всё, что Вы хотите узнать о погоде Агинское!

Хотите узнать прогноз погоды Агинское? Тогда Вам сюда: Погода Агинское

Поиск расширенной информации на нашем сайте:

Другие новости

Новости СМИ2

Главная страница сайта

Новости сайта

02.10.2013

Напоминаем, что на нашем новом сайте вы можете получить высокодетализированные прогнозы погоды по пунктам России, СНГ и мира (включающие важные для авиации метеовеличины, такие как направление и скорость ветра, видимость, явления погоды, количество и форма облачности, нижняя и верхняя граница облачности), а также ознакомиться с разнообразными материалами по авиационной метеорологии и подборкой полезных ссылок на эту тему.

Сайт Метеоцентр.Азия посвящён разработке технологий оптимизации авиаметеорологического обслуживания, включая проектирование и перспективное создание нескольких автоматизированных авиаметеорологических систем:
- система выпуска высокодетальных прогностических карт явлений погоды для нижнего воздушного пространства по России и ближнему зарубежью;
- система верификации прогнозов TAF (выпускаемых синоптиками официальных АМСГ РФ и ближнего зарубежья) и AUTOTAF (выпускаемых сайтом Метеоцентр.Азия) - выявление ошибок, онлайн-сопоставление с фактической погодой METAR, автоматическое внесение коррективов в прогнозы при резком отклонении фактической погоды от прогноза, подсчёт оправдываемости прогнозов по элементам и в целом;
- система обработки, анализа и отображения авиаметеорологической информации для применения провайдерами метеорологической информации.

Рекомендуем: Сравнить цены на полиграфические и дизайнерские услуги www.poli33.ru.

Погода Агинское - сегодня

Время (UTC), дата Ветер
(°,м/с) 
Видим.   Явления Облачность Т
(°С)
Тd
(°С)
f(%) Тe
(°С)
Pmin
(гПа)
dP
(гПа)
Po
(мм)
O2
(г/м3)
Тmin Tmax R s Состояние
почвы
06 23.02.17 270 (З) 5-10{12}  20000 м    10/5 2000 м средняя, верхняя 
[Ac lent|Cs]
+3.3 -4.2 58 +1  1023.7  0.5  737  294           
09 23.02.17 260 (З) 4-12{13}  20000 м    9/5 600 м кучево-дожд., верхняя 
[Cb cap|Cs]
+3.6 -5.2 53 +2  1024.4  0.7  737  294           
12 23.02.17 260 (З) 3{12}  20000 м    10/5 1000 м средняя 
[Sc|Ac As]
+3.4 -5.7 51 +2  1025.1  0.6  738  294    +3.9       
15 23.02.17 270 (З) 4{10}  20000 м    ясно 
+3.9 -6.3 47 +2  1025.7  0.6  738  294           
18 23.02.17 150 (ЮВ) 20000 м    ясно 
+0.6 -6.3 60 +1  1026.6  0.4  738  297           
21 23.02.17 360 (С) 20000 м    ясно 
-6.4 -8.9 82 -6  1028.2  0.5  739  306           
00 24.02.17 тихо ()   20000 м    ясно 
-10.1 -11.4 90 -10  1029.5  0.6  739  310  -10.1      25  неравномерный
сухой снег
100% 
03 24.02.17 тихо ()   20000 м    3/0 верхняя 
[Ci fib]
-4.8 -9.8 68 -5  1029.2  0.6  740  304  -11         
06 24.02.17 170 (Ю) 20000 м    5/0 верхняя 
[Ci fib]
+4.6 -6.6 44 +5  1026.8  -0.9  739  293           
09 24.02.17 160 (Ю) 20000 м    5/0 верхняя 
[Ci fib]
+5 -6.3 44 +5  1025.4  -1.3  738  293           
12 24.02.17 тихо ()   20000 м    8/3 2000 м средняя, верхняя 
[Ac lent|Cs]
-2.7 -5.9 79 -3  1025.8  -0.8  737  301    +5.6       
15 24.02.17 тихо ()   20000 м    ясно 
-8.5 -10.1 88 -9  1025.5  -1.1  737  307           
18 24.02.17 360 (С) 20000 м    ясно 
-12.3 -13.2 93 -12  1024.5  -1.6  735  311           
21 24.02.17 010 (С) 20000 м    ясно 
-14.6 -16 89 -15  1023.9  -1  735  314           
00 25.02.17 020 (С) 20000 м    4/4 1000 м 
[Sc]
-14.9 -16.6 87 -15  1023.6  -0.3  734  314  -15.2      24  неравномерный
сухой снег
100% 
03 25.02.17 тихо ()   20000 м    8/8 1200 м 
[Sc]
-9.1 -11.8 81 -9  1023.2  0.5  735  307           
06 25.02.17 170 (Ю) 4000 м  дымка  10/3 1000 м средняя, верхняя 
[Sc|Ac lent|Cs]
+1.2 -6.4 57 +2  1021.1  -0.4  734  295           
09 25.02.17 070 (В) 20000 м    9/1 1000 м средняя, верхняя 
[Sc|Ac lent|Ci fib]
+3.5 -6.7 47 +3  1019.6  -1  734  293           
12 25.02.17 тихо ()   20000 м    ясно 
-4.5 -7.7 78 -5  1021.4  0.4  734  301    +5.3       
15 25.02.17 010 (С) 20000 м    ясно 
-10.9 -12.2 90 -11  1023.2  0.7  735  309           
18 25.02.17 360 (С) 20000 м    ясно 
-10.9 -12.2 90 -11  1023.2  -0.1  734  309           
21 25.02.17 350 (С) 20000 м    ясно 
-16.6 -18 89 -17  1023.3  -0.8  734  316           
00 26.02.17 010 (С) 20000 м    6/3 1000 м верхняя 
[Sc|Cs]
-17.5 -19.3 86 -18  1022.9  -0.5  734  317  -17.8      24  неравномерный
сухой снег
100% 
03 26.02.17 360 (С) 20000 м    10/0 верхняя 
[Cs]
-11.7 -13.9 84 -12  1022.8  0.9  734  310           
06 26.02.17 020 (С) 20000 м    10/4 1000 м верхняя 
[Sc|Cs]
-9.9   1020.9  0.1  734             
Время (UTC), дата Ветер
(°,м/с) 
Видим.   Явления Облачность Т
(°С)
Тd
(°С)
f(%) Тe
(°С)
Pmin
(гПа)
dP
(гПа)
Po
(мм)
O2
(г/м3)
Тmin Tmax R s Состояние
почвы

Для получения пояснительной информации подведите курсор к названию столбца.

ПОГОДА Агинское - архив

Всё, что Вы хотите узнать о погоде Агинское - удобно и подробно!

Выберите нужную дату (начиная с 1 января 2015* года) и нажмите кнопку "Найти".
Будут отображены архивные сводки погоды по пункту Агинское, начиная с указанной даты.


Отображать данные в формате CSV (для использования в таблицах Excel)


Внимание! Наш архив погоды предназначен исключительно для личного некоммерческого использования в познавательных целях. Если Вам необходимы официальные справки о состоянии погоды (для производственных, юридических, коммерческих и т.п. целей), обращайтесь в органы Росгидромета.

*Примечание: данная дата относится к архиву по метеостанциям СССР (Россия, СНГ, Балтия).
Архив по метеостанциям Зарубежной Европы и Азии (кроме Китая) хранится 10 дней, по другим регионам земного шара (Китай, Африка, Америка, Австралия, Океания) - 1 день.

Агинское - район местоположения метеостанции


Название, широта, долгота, высота метеостанции:
Агинское 55.2°ш. 94.9°д. 337 м над ур. моря [Российская Федерация]

Дополнительная информация

В oтличие oт бoльшинства пoгoдных сайтoв мы публикуем пoдрoбную метеoинфoрмацию в детальнoм прoфессиoнальнoм фoрмате.

Характеристики температуры и влажнoсти вoздуха измеряются на высoте 2 м в тени вдали oт зданий и деревьев.
Скoрoсть ветра измеряется на высoте 10 м (на урoвне рoста челoвека скoрoсть ветра ниже в 1.5-2 раза). Если метеoстанция нахoдится в гoрoде или в лесу, тo скoрoсть ветра занижена на 2-4 м/с пo сравнению с oткрытым местoм. Скoрoсть ветра над акватoриями крупных рек и oзёр, а также на вершинах хoлмoв на 2-5 м/с выше, чем в oбычных услoвиях.
Атмoсфернoе давление в разных тoчках местнoсти мoжет значительнo oтличаться oт давления на метеoстанции, в зависимoсти oт услoвий рельефа (при пoдъёме на 10 м давление пoнижается примернo на 1 мм рт.ст.).